Regional Weather Roundup
Issued by NWS Albany, NY

Home | Current Version | Previous Version | Graphics & Text | Print | Product List | Glossary Off
Versions: 1 2 3 4 5 6 7 8 9 10 11 12 13 14 15 16 17 18 19 20 21 22 23 24 25 26 27 28 29 30 31 32 33 34 35 36 37 38 39 40 41 42 43 44 45 46 47 48 49 50

000
ASUS41 KALY 042310
RWRALY

NEW YORK STATE HOURLY WEATHER ROUNDUP
NATIONAL WEATHER SERVICE ALBANY NY
700 PM EDT TUE AUG 04 2015

NOTE: "FAIR" INDICATES FEW OR NO CLOUDS BELOW 12,000 FEET WITH NO
SIGNIFICANT WEATHER AND/OR NO OBSTRUCTIONS TO VISIBILITY.

NYZ032-033-038>043-046>054-057>066-NYZ062>081-050000-
EAST


CITY           SKY/WX    TMP DP  RH WIND       PRES   REMARKS
ALBANY         PTSUNNY   77  56  48 W13       29.86R
GLENS FALLS    MOSUNNY   78  53  41 W10       29.83R
POUGHKEEPSIE   MOSUNNY   85  55  35 W9        29.84R
NEWBURGH       MOSUNNY   82  55  39 W18       29.87R
MONTGOMERY     PTSUNNY   82  59  45 NW6       29.86R
WHITE PLAINS   MOSUNNY   84  55  36 W6        29.86R
ISLIP          MOSUNNY   85  64  49 SW9       29.82S
NEW YORK CITY  MOSUNNY   88  51  28 W20G26    29.84R
CENTRAL PARK   SUNNY     84  55  36 MISG      29.88R
$$

NYZ005>009-017-018-044>046-055-056-050000-
CENTRAL


CITY           SKY/WX    TMP DP  RH WIND       PRES   REMARKS
FULTON         CLOUDY    70  60  70 SW3       29.89S
SYRACUSE       CLOUDY    70  62  76 SW6       29.89S
ROME           MOSUNNY   72  58  61 W12       29.90S
ELMIRA         MOSUNNY   75  61  61 CALM      29.89F
BINGHAMTON     MOSUNNY   71  57  61 W6        29.94R
MONTICELLO     SUNNY     73  55  53 NW7       29.94R
$$

NYZ026>034-041>043-050000-
NORTH


CITY           SKY/WX    TMP DP  RH WIND       PRES   REMARKS
WATERTOWN      PTSUNNY   72  57  59 SW10      29.86R
FORT DRUM      NOT AVBL
MASSENA        LGT RAIN  71  62  73 W3        29.82S
SARANAC LAKE   CLOUDY    67  53  61 VRB3      29.86S
PLATTSBURGH    LGT RAIN  66  60  81 SW5       29.82R
$$

NYZ001>004-010>016-019>021-050000-
WEST


CITY           SKY/WX    TMP DP  RH WIND       PRES   REMARKS
NIAGARA FALLS  PTSUNNY   66  61  84 S6        29.87F
BUFFALO        CLOUDY    65  60  84 SW5       29.89F
DUNKIRK        MOSUNNY   74  59  59 W10G22    29.91S
JAMESTOWN      CLOUDY    72  48  43 W12G18    29.97S
WELLSVILLE     MOSUNNY   72  53  51 W9        29.98R
ROCHESTER      PTSUNNY   69  61  75 SW3       29.90S
PENN YAN       MOSUNNY   76  54  46 W7        29.91S
$$

             KEY
       WCI = WIND CHILL INDEX
       VSB = VISIBILITY
       HX  = HEAT INDEX
$$



USA.gov is the U.S. government's official web portal to all federal, state and local government web resources and services.